Weather History for KMPZ - January, 2014

Change the Weather History Date:

Sunday, January 12, 2014

  Actual Average Record
Temperature  
Mean Temperature 38 °F -  
Max Temperature 49 °F 27 °F 59 °F (1960)
Min Temperature 26 °F 11 °F -23 °F (1974)
Degree Days  
Heating Degree Days 28    
Moisture  
Dew Point 30 °F    
Average Humidity 73    
Maximum Humidity 93    
Minimum Humidity 52    
Precipitation  
Precipitation 0.00 in - - ()
Sea Level Pressure  
Sea Level Pressure 29.66 in    
Wind  
Wind Speed 10 mph (South)    
Max Wind Speed 22 mph    
Max Gust Speed 31 mph    
Visibility 10 miles    
Events      
Averages and records for this station are not official NWS values.
T = Trace of Precipitation, MM = Missing Value Source: NWS Daily Summary

Daily Weather History Graph

Daily Weather History Graph

Search for Another Location

Airport or City:

Trip Planner

Search our weather history database for the weather conditions in past years. The results will help you decide how hot, cold, wet, or windy it might be!

Date:

Astronomy

Jan. 12, 2014 Rise Set
Actual Time 7:29 AM CST 4:59 PM CST
Civil Twilight 6:59 AM CST 5:29 PM CST
Nautical Twilight 6:25 AM CST 6:03 PM CST
Astronomical Twilight 5:52 AM CST 6:36 PM CST
Moon 2:27 PM CST (1/12) 4:28 AM CST (1/12)
Length of Visible Light 10h 30m
Length of Day
9h 29m
Waxing Gibbous, 90% of the Moon is Illuminated
Jan 12
Waxing Gibbous
Jan 15
Full
Jan 23
Last Quarter
Jan 30
New
Feb 6
First Quarter

Hourly Weather History & Observations

Time (CST) Temp. Windchill Dew Point Humidity Pressure Visibility Wind Dir Wind Speed Gust Speed Precip Events Conditions
12:15 AM 28.2 °F 22.0 °F 25.7 °F 90% 29.87 in 7.0 mi SSW 5.8 mph - N/A   Clear
12:35 AM 27.5 °F 20.2 °F 25.5 °F 92% 29.87 in 7.0 mi SSW 6.9 mph - N/A   Clear
12:55 AM 27.5 °F 21.1 °F 25.5 °F 92% 29.86 in 10.0 mi South 5.8 mph - N/A   Clear
1:15 AM 27.3 °F 19.9 °F 25.2 °F 92% 29.85 in 10.0 mi South 6.9 mph - N/A   Clear
1:35 AM 27.1 °F 18.9 °F 25.2 °F 92% 29.85 in 10.0 mi South 8.1 mph - N/A   Clear
1:55 AM 27.1 °F 19.7 °F 25.0 °F 92% 29.84 in 10.0 mi SSE 6.9 mph - N/A   Clear
2:15 AM 27.0 °F 18.7 °F 24.8 °F 92% 29.84 in 10.0 mi South 8.1 mph - N/A   Clear
2:35 AM 26.6 °F 20.0 °F 24.4 °F 92% 29.83 in 10.0 mi South 5.8 mph - N/A   Clear
2:55 AM 26.6 °F 19.1 °F 24.6 °F 92% 29.81 in 10.0 mi SSE 6.9 mph - N/A   Clear
3:15 AM 27.1 °F 18.9 °F 25.3 °F 93% 29.81 in 10.0 mi South 8.1 mph - N/A   Clear
3:35 AM 27.5 °F 19.3 °F 25.5 °F 92% 29.81 in 10.0 mi South 8.1 mph - N/A   Clear
3:55 AM 27.5 °F 18.6 °F 25.3 °F 92% 29.80 in 10.0 mi SSE 9.2 mph - N/A   Clear
4:15 AM 27.5 °F 18.6 °F 25.7 °F 93% 29.80 in 10.0 mi South 9.2 mph - N/A   Clear
4:35 AM 28.2 °F 18.9 °F 26.2 °F 92% 29.80 in 10.0 mi South 10.4 mph - N/A   Clear
4:55 AM 29.3 °F 19.6 °F 27.1 °F 92% 29.79 in 10.0 mi South 11.5 mph - N/A   Clear
5:15 AM 30.2 °F 20.2 °F 27.3 °F 89% 29.79 in 10.0 mi South 12.7 mph - N/A   Clear
5:35 AM 30.2 °F 19.8 °F 27.3 °F 89% 29.77 in 10.0 mi South 13.8 mph - N/A   Clear
5:55 AM 30.7 °F 21.4 °F 27.5 °F 88% 29.77 in 10.0 mi South 11.5 mph - N/A   Clear
6:15 AM 31.6 °F 21.6 °F 27.9 °F 86% 29.77 in 10.0 mi South 13.8 mph - N/A   Clear
6:35 AM 31.5 °F 20.9 °F 27.9 °F 87% 29.75 in 10.0 mi South 15.0 mph - N/A   Clear
6:55 AM 31.6 °F 22.6 °F 27.9 °F 86% 29.76 in 10.0 mi South 11.5 mph - N/A   Clear
7:15 AM 32.0 °F 22.5 °F 28.0 °F 85% 29.75 in 10.0 mi South 12.7 mph - N/A   Clear
7:35 AM 32.2 °F 21.4 °F 28.4 °F 86% 29.74 in 10.0 mi South 16.1 mph - N/A   Clear
7:55 AM 32.5 °F 21.5 °F 28.4 °F 85% 29.74 in 10.0 mi South 17.3 mph - N/A   Clear
8:15 AM 34.7 °F 23.7 °F 28.4 °F 78% 29.74 in 10.0 mi South 19.6 mph - N/A   Clear
8:35 AM 36.3 °F 25.8 °F 28.4 °F 73% 29.73 in 10.0 mi South 19.6 mph 29.9 mph N/A   Clear
8:55 AM 37.4 °F 26.9 °F 28.0 °F 69% 29.73 in 10.0 mi South 20.7 mph 28.8 mph N/A   Clear
9:15 AM 37.8 °F 28.3 °F 27.5 °F 67% 29.73 in 10.0 mi South 17.3 mph 27.6 mph N/A   Clear
9:35 AM 38.5 °F 29.6 °F 28.4 °F 67% 29.72 in 10.0 mi South 16.1 mph 21.9 mph N/A   Clear
9:55 AM 39.7 °F 30.3 °F 28.4 °F 64% 29.71 in 10.0 mi South 19.6 mph - N/A   Clear
10:15 AM 41.2 °F 32.1 °F 28.9 °F 62% 29.71 in 10.0 mi South 19.6 mph 24.2 mph N/A   Clear
10:35 AM 42.4 °F 33.8 °F 28.9 °F 59% 29.69 in 10.0 mi South 19.6 mph - N/A   Clear
10:55 AM 43.2 °F 34.7 °F 29.1 °F 58% 29.66 in 10.0 mi South 19.6 mph 26.5 mph N/A   Clear
11:15 AM 44.2 °F 35.9 °F 29.7 °F 57% 29.64 in 10.0 mi South 20.7 mph 26.5 mph N/A   Clear
11:35 AM 45.1 °F 37.3 °F 29.5 °F 54% 29.62 in 10.0 mi South 19.6 mph 27.6 mph N/A   Clear
11:55 AM 45.7 °F 37.8 °F 29.8 °F 54% 29.60 in 10.0 mi South 20.7 mph 28.8 mph N/A   Clear
12:15 PM 46.4 °F 38.5 °F 30.4 °F 54% 29.59 in 10.0 mi South 21.9 mph 31.1 mph N/A   Clear
12:35 PM 46.0 °F 38.3 °F 30.6 °F 55% 29.57 in 10.0 mi South 20.7 mph 27.6 mph N/A   Clear
12:55 PM 46.4 °F 39.2 °F 31.1 °F 55% 29.56 in 10.0 mi South 18.4 mph - N/A   Clear
1:15 PM 47.7 °F - 31.5 °F 53% 29.55 in 10.0 mi South 16.1 mph 28.8 mph N/A   Clear
1:35 PM 46.9 °F - 32.0 °F 56% 29.54 in 10.0 mi South 17.3 mph 23.0 mph N/A   Clear
1:55 PM 47.8 °F - 32.4 °F 55% 29.54 in 10.0 mi South 16.1 mph 21.9 mph N/A   Clear
2:15 PM 49.5 °F - 32.5 °F 52% 29.54 in 10.0 mi South 15.0 mph - N/A   Clear
2:35 PM 48.9 °F - 31.8 °F 52% 29.52 in 10.0 mi South 16.1 mph 24.2 mph N/A   Clear
2:55 PM 48.2 °F - 32.2 °F 54% 29.52 in 10.0 mi South 16.1 mph - N/A   Clear
3:15 PM 48.2 °F - 32.4 °F 54% 29.53 in 10.0 mi South 11.5 mph 20.7 mph N/A   Clear
3:35 PM 48.7 °F - 32.9 °F 54% 29.53 in 10.0 mi South 13.8 mph - N/A   Clear
3:55 PM 49.1 °F - 33.3 °F 54% 29.54 in 10.0 mi South 9.2 mph - N/A   Clear
4:15 PM 47.8 °F - 33.8 °F 58% 29.55 in 10.0 mi South 8.1 mph - N/A   Clear
4:35 PM 45.7 °F 41.0 °F 33.1 °F 61% 29.55 in 10.0 mi South 9.2 mph - N/A   Clear
4:55 PM 46.4 °F 42.4 °F 32.2 °F 58% 29.54 in 10.0 mi South 8.1 mph - N/A   Clear
5:15 PM 45.5 °F - 32.0 °F 59% 29.55 in 10.0 mi Calm Calm - N/A   Clear
5:35 PM 46.6 °F - 32.0 °F 57% 29.56 in 10.0 mi SSE 4.6 mph - N/A   Clear
5:55 PM 45.0 °F - 32.0 °F 60% 29.56 in 10.0 mi Calm Calm - N/A   Clear
6:15 PM 43.5 °F 40.1 °F 31.8 °F 63% 29.56 in 10.0 mi SSE 5.8 mph - N/A   Clear
6:35 PM 41.0 °F 37.1 °F 31.6 °F 69% 29.56 in 10.0 mi SSE 5.8 mph - N/A   Clear
6:55 PM 41.4 °F 39.4 °F 31.8 °F 69% 29.56 in 10.0 mi SSE 3.5 mph - N/A   Clear
7:15 PM 41.9 °F 39.0 °F 32.0 °F 68% 29.56 in 10.0 mi SE 4.6 mph - N/A   Clear
7:35 PM 40.5 °F 35.8 °F 32.0 °F 72% 29.56 in 10.0 mi SE 6.9 mph - N/A   Clear
7:55 PM 39.9 °F 36.7 °F 32.0 °F 73% 29.57 in 10.0 mi SSE 4.6 mph - N/A   Clear
8:15 PM 40.5 °F 38.4 °F 32.0 °F 72% 29.57 in 10.0 mi SSE 3.5 mph - N/A   Clear
8:35 PM 38.7 °F 35.2 °F 32.0 °F 77% 29.57 in 10.0 mi SSE 4.6 mph - N/A   Clear
8:55 PM 37.8 °F 35.3 °F 31.8 °F 79% 29.56 in 10.0 mi SSE 3.5 mph - N/A   Clear
9:15 PM 38.8 °F 35.4 °F 32.0 °F 76% 29.57 in 10.0 mi SSE 4.6 mph - N/A   Clear
9:35 PM 38.3 °F 35.9 °F 32.0 °F 78% 29.57 in 10.0 mi South 3.5 mph - N/A   Clear
9:55 PM 39.0 °F 34.8 °F 32.0 °F 76% 29.57 in 10.0 mi South 5.8 mph - N/A   Clear
10:15 PM 37.8 °F 34.2 °F 32.0 °F 80% 29.57 in 10.0 mi South 4.6 mph - N/A   Clear
10:35 PM 36.5 °F 30.3 °F 31.5 °F 82% 29.57 in 10.0 mi SSE 8.1 mph - N/A   Clear
10:55 PM 35.4 °F 31.5 °F 31.1 °F 84% 29.57 in 10.0 mi South 4.6 mph - N/A   Clear
11:15 PM 36.1 °F 33.5 °F 31.8 °F 84% 29.57 in 10.0 mi SW 3.5 mph - N/A   Clear
11:35 PM 36.5 °F 33.9 °F 31.8 °F 83% 29.57 in 10.0 mi SW 3.5 mph - N/A   Clear
11:55 PM 36.5 °F 33.9 °F 31.8 °F 83% 29.57 in 10.0 mi SW 3.5 mph - N/A   Clear